Home   Weather   Brampton   Past weeks

Flag for Canada Past Weather in Brampton, Ontario, Canada — Yesterday and Last 2 Weeks

Now
43 °F

Fog.


Feels Like: 41 °F
Forecast: 36 / 42 °F
Wind: 3 mph from Southeast

Location: Toronto Pearson International Airport

Current Time: Jan 21, 2017 at 2:50:21 pm

Latest Report: Jan 21, 2017 at 2:00 pm


Visibility: 5 mi

Pressure: 29.72 "Hg

Humidity: 93%

Dew Point: 41 °F

Location of BramptonLocation

Past Weather in Brampton — Graph

°F

Brampton Temperature Yesterday

Maximum temperature yesterday: 39 °F (at 3:00 pm)
Minimum temperature yesterday: 34 °F (at 12:00 am)
Average temperature yesterday: 36 °F

High & Low Weather Summary for the Past Weeks

 TemperatureHumidityPressure
High48 °F (Jan 12, 3:44 am)100% (Jan 10, 8:40 am)30.81 "Hg (Jan 10, 8:40 am)
Low7 °F (Jan 7, 5:00 am)37% (Jan 8, 4:00 pm)29.46 "Hg (Jan 11, 12:00 am)
Average30 °F78%30.12 "Hg
* Reported Jan 6 1:00 pm — Jan 21 1:00 pm, Brampton, Weather by CustomWeather, © 2017

Note: Actual official high and low records may vary slightly from our data, if they occured in-between our weather recording intervals... More about our weather records

Advertising

Brampton Weather History for the Previous 24 Hours

Scroll right to see more
 ConditionsComfort  
Time TempWeatherWind HumidityBarometerVisibility
1:00 pm
Sat, Jan 21
41 °FFog.6 mph93%29.73 "Hg5 mi
12:00 pm41 °FFog.2 mph93%29.77 "Hg5 mi
11:00 am39 °FFog.5 mph93%29.78 "Hg5 mi
10:34 am37 °FFog.2 mph100%29.80 "Hg5 mi
10:00 am37 °FFog.No wind100%29.80 "Hg5 mi
9:38 am37 °FFog.7 mph93%29.79 "Hg4 mi
9:00 am37 °FFog.7 mph93%29.80 "Hg4 mi
8:00 am36 °FFog.7 mph100%29.80 "Hg5 mi
7:18 am36 °FFog.5 mph100%29.80 "Hg5 mi
7:00 am37 °FFog.3 mph93%29.80 "Hg5 mi
6:44 am36 °FFog.2 mph100%29.80 "Hg5 mi
6:32 am36 °FFog.5 mph100%29.80 "Hg3 mi
6:22 am36 °FFog.3 mph100%29.80 "Hg1 mi
6:00 am36 °FFog.7 mph100%29.80 "Hg0 mi
5:03 am36 °FFog.6 mph100%29.78 "Hg0 mi
4:00 am37 °FMostly cloudy.5 mph100%29.79 "Hg8 mi
3:00 am37 °FMostly cloudy.3 mph100%29.80 "Hg8 mi
2:00 am37 °FFog.3 mph93%29.78 "Hg3 mi
1:49 am36 °FDrizzle. Fog.3 mph100%29.78 "Hg2 mi
1:00 am37 °FDrizzle. Fog.5 mph100%29.78 "Hg0 mi
12:00 am37 °FDrizzle. Fog.2 mph93%29.78 "Hg0 mi
11:00 pm
Fri, Jan 20
37 °FDrizzle. Fog.3 mph93%29.76 "Hg0 mi
10:30 pm37 °FDrizzle. Fog.No wind100%29.76 "Hg1 mi
10:14 pm37 °FDrizzle. Fog.2 mph100%29.75 "Hg2 mi
10:00 pm37 °FDrizzle. Fog.2 mph100%29.76 "Hg4 mi
9:00 pm37 °FDrizzle. Fog.6 mph100%29.76 "Hg4 mi
8:27 pm37 °FDrizzle. Fog.7 mph100%29.75 "Hg6 mi
8:00 pm37 °FDrizzle. Fog.5 mph100%29.75 "Hg6 mi
7:00 pm37 °FDrizzle. Fog.6 mph93%29.76 "Hg6 mi
6:00 pm37 °FMostly cloudy.6 mph93%29.75 "Hg10 mi
5:00 pm37 °FDrizzle. Low clouds.7 mph93%29.74 "Hg8 mi
4:34 pm37 °FDrizzle. Low clouds.9 mph93%29.74 "Hg8 mi
4:00 pm37 °FLight rain. Low clouds.8 mph93%29.74 "Hg8 mi
3:48 pm39 °FLight rain. Low clouds.6 mph87%29.74 "Hg10 mi
3:00 pm39 °FOvercast.7 mph87%29.74 "Hg10 mi
2:00 pm37 °FOvercast.9 mph87%29.73 "Hg10 mi
Weather by CustomWeather, © 2017

See weather overviewHow to use our weather pages